Weather History for Cody, WY

Change the Weather History Date:

Monday, March 11, 2013

  Actual Average Record
Temperature  
Mean Temperature 35 °F -  
Max Temperature 46 °F 49 °F 71 °F (1934)
Min Temperature 23 °F 25 °F -20 °F (1932)
Degree Days  
Heating Degree Days 30    
Moisture  
Dew Point 20 °F    
Average Humidity 56    
Maximum Humidity 80    
Minimum Humidity 25    
Precipitation  
Precipitation 0.00 in - - ()
Sea Level Pressure  
Sea Level Pressure 30.02 in    
Wind  
Wind Speed 11 mph (NNW)    
Max Wind Speed 22 mph    
Max Gust Speed 39 mph    
Visibility 10 miles    
Events      
Averages and records for this station are not official NWS values.
T = Trace of Precipitation, MM = Missing Value Source: NWS Daily Summary

Daily Weather History Graph

Daily Weather History Graph

Search for Another Location

Airport:

Trip Planner

Search our weather history database for the weather conditions in past years. The results will help you decide how hot, cold, wet, or windy it might be!

Date:

Astronomy

Mar. 11, 2013 Rise Set
Actual Time 7:35 AM MDT 7:17 PM MDT
Civil Twilight 7:06 AM MDT 7:46 PM MDT
Nautical Twilight 6:32 AM MDT 8:20 PM MDT
Astronomical Twilight 5:58 AM MDT 8:54 PM MDT
Moon 7:09 AM MDT (3/11) 7:35 PM MDT (3/11)
Length of Visible Light 12h 40m
Length of Day
11h 42m
Waning Crescent, 0% of the Moon is Illuminated
Mar 11
Waning Crescent
Mar 11
New
Mar 19
First Quarter
Mar 27
Full
Apr 2
Last Quarter

Hourly Weather History & Observations

Time (MDT) Temp. Windchill Dew Point Humidity Pressure Visibility Wind Dir Wind Speed Gust Speed Precip Events Conditions
12:15 AM 42.8 °F 33.8 °F 19.4 °F 39% 29.96 in 10.0 mi West 21.9 mph 39.1 mph N/A   Clear
12:35 AM 41.0 °F 31.6 °F 19.4 °F 42% 29.97 in 10.0 mi WSW 20.7 mph 34.5 mph N/A   Scattered Clouds
12:55 AM 41.0 °F 32.5 °F 19.4 °F 42% 29.96 in 10.0 mi WSW 17.3 mph 34.5 mph N/A   Mostly Cloudy
1:15 AM 41.0 °F 35.8 °F 19.4 °F 42% 29.96 in 10.0 mi WNW 8.1 mph - N/A   Mostly Cloudy
1:35 AM 42.8 °F - 19.4 °F 39% 29.96 in 10.0 mi Calm Calm - N/A   Overcast
1:55 AM 41.0 °F 36.4 °F 17.6 °F 39% 29.95 in 10.0 mi SW 6.9 mph - N/A   Overcast
2:15 AM 39.2 °F - 19.4 °F 45% 29.97 in 10.0 mi Calm Calm - N/A   Overcast
2:35 AM 39.2 °F 34.2 °F 19.4 °F 45% 29.97 in 10.0 mi WNW 6.9 mph - N/A   Mostly Cloudy
2:55 AM 39.2 °F 34.2 °F 21.2 °F 49% 29.97 in 10.0 mi West 6.9 mph - N/A   Mostly Cloudy
3:15 AM 37.4 °F - 19.4 °F 48% 29.96 in 10.0 mi Calm Calm - N/A   Partly Cloudy
3:35 AM 37.4 °F - 19.4 °F 48% 29.96 in 10.0 mi Calm Calm - N/A   Clear
3:55 AM 37.4 °F 33.8 °F 21.2 °F 52% 29.97 in 10.0 mi West 4.6 mph - N/A   Scattered Clouds
4:15 AM 37.4 °F 33.8 °F 21.2 °F 52% 29.96 in 10.0 mi West 4.6 mph - N/A   Scattered Clouds
4:35 AM 37.4 °F 32.8 °F 21.2 °F 52% 29.96 in 10.0 mi WSW 5.8 mph - N/A   Partly Cloudy
4:55 AM 37.4 °F 31.4 °F 21.2 °F 52% 29.95 in 10.0 mi West 8.1 mph - N/A   Clear
5:15 AM 39.2 °F 32.5 °F 19.4 °F 45% 29.95 in 10.0 mi West 10.4 mph - N/A   Clear
5:35 AM 39.2 °F 32.5 °F 19.4 °F 45% 29.95 in 10.0 mi WSW 10.4 mph 16.1 mph N/A   Clear
5:55 AM 39.2 °F 32.0 °F 19.4 °F 45% 29.95 in 10.0 mi WSW 11.5 mph 20.7 mph N/A   Clear
6:15 AM 35.6 °F - 17.6 °F 48% 29.96 in 10.0 mi Calm Calm - N/A   Clear
6:35 AM 35.6 °F 30.7 °F 19.4 °F 52% 29.97 in 10.0 mi East 5.8 mph - N/A   Clear
6:55 AM 37.4 °F 30.3 °F 19.4 °F 48% 29.97 in 10.0 mi ESE 10.4 mph - N/A   Mostly Cloudy
7:15 AM 37.4 °F 32.1 °F 19.4 °F 48% 29.98 in 10.0 mi East 6.9 mph 16.1 mph N/A   Overcast
7:35 AM 37.4 °F - 19.4 °F 48% 29.98 in 10.0 mi Calm Calm - N/A   Overcast
7:55 AM 37.4 °F 31.4 °F 19.4 °F 48% 29.99 in 10.0 mi East 8.1 mph - N/A   Overcast
8:15 AM 37.4 °F 32.8 °F 21.2 °F 52% 29.99 in 10.0 mi East 5.8 mph - N/A   Overcast
8:35 AM 37.4 °F 32.1 °F 21.2 °F 52% 29.99 in 10.0 mi East 6.9 mph - N/A   Mostly Cloudy
8:55 AM 35.6 °F 32.8 °F 21.2 °F 56% 30.00 in 10.0 mi East 3.5 mph - N/A   Partly Cloudy
9:15 AM 35.6 °F - 23.0 °F 60% 30.00 in 10.0 mi Calm Calm - N/A   Mostly Cloudy
9:35 AM 35.6 °F 32.8 °F 23.0 °F 60% 30.00 in 10.0 mi NE 3.5 mph - N/A   Overcast
9:55 AM 35.6 °F 30.7 °F 24.8 °F 65% 30.01 in 10.0 mi NNE 5.8 mph - N/A   Overcast
10:15 AM 35.6 °F - 24.8 °F 65% 30.01 in 10.0 mi Calm Calm - N/A   Overcast
10:35 AM 35.6 °F 32.8 °F 23.0 °F 60% 30.01 in 10.0 mi ENE 3.5 mph - N/A   Overcast
10:55 AM 37.4 °F - 24.8 °F 60% 30.00 in 10.0 mi Calm Calm - N/A   Mostly Cloudy
11:15 AM 37.4 °F 34.9 °F 24.8 °F 60% 30.00 in 10.0 mi NNW 3.5 mph - N/A   Mostly Cloudy
11:35 AM 39.2 °F 31.2 °F 24.8 °F 56% 29.98 in 10.0 mi WSW 13.8 mph 19.6 mph N/A   Scattered Clouds
11:55 AM 41.0 °F 34.7 °F 24.8 °F 53% 29.97 in 10.0 mi West 10.4 mph 19.6 mph N/A   Clear
12:15 PM 42.8 °F 35.1 °F 21.2 °F 42% 29.98 in 10.0 mi NNW 16.1 mph 21.9 mph N/A   Mostly Cloudy
12:35 PM 41.0 °F 32.2 °F 24.8 °F 53% 30.00 in 10.0 mi North 18.4 mph 24.2 mph N/A   Mostly Cloudy
12:55 PM 39.2 °F 32.0 °F 24.8 °F 56% 29.99 in 10.0 mi NNW 11.5 mph 17.3 mph N/A   Overcast
1:15 PM 39.2 °F 30.2 °F 21.2 °F 49% 29.97 in 10.0 mi NNW 17.3 mph 24.2 mph N/A   Mostly Cloudy
1:35 PM 44.6 °F 36.1 °F 19.4 °F 37% 29.97 in 10.0 mi NW 21.9 mph 28.8 mph N/A   Scattered Clouds
1:55 PM 44.6 °F 37.2 °F 17.6 °F 34% 29.96 in 10.0 mi NNW 17.3 mph 27.6 mph N/A   Scattered Clouds
2:35 PM 44.6 °F 36.1 °F 10.4 °F 25% 29.96 in 10.0 mi NW 21.9 mph 29.9 mph N/A   Mostly Cloudy
2:55 PM 46.4 °F 40.7 °F 12.2 °F 25% 29.95 in 10.0 mi NW 12.7 mph 20.7 mph N/A   Mostly Cloudy
3:15 PM 46.4 °F 39.0 °F 12.2 °F 25% 29.95 in 10.0 mi NNE 19.6 mph - N/A   Overcast
4:15 PM 39.2 °F 30.8 °F 17.6 °F 42% 29.98 in 10.0 mi NNE 15.0 mph 21.9 mph N/A   Mostly Cloudy
4:35 PM 39.2 °F 29.3 °F 17.6 °F 42% 29.98 in 10.0 mi NNE 20.7 mph 26.5 mph N/A   Overcast
5:15 PM 37.4 °F 26.9 °F 17.6 °F 45% 30.01 in 10.0 mi North 20.7 mph 29.9 mph N/A   Overcast
5:35 PM 35.6 °F 24.8 °F 19.4 °F 52% 30.03 in 10.0 mi North 19.6 mph 27.6 mph N/A   Overcast
5:55 PM 33.8 °F 21.9 °F 21.2 °F 60% 30.04 in 10.0 mi North 21.9 mph 26.5 mph N/A   Overcast
6:15 PM 33.8 °F 22.8 °F 21.2 °F 60% 30.05 in 10.0 mi North 18.4 mph 25.3 mph N/A   Mostly Cloudy
6:35 PM 32.0 °F 21.2 °F 23.0 °F 69% 30.07 in 10.0 mi North 16.1 mph - N/A   Overcast
6:55 PM 30.2 °F 17.1 °F 23.0 °F 75% 30.08 in 10.0 mi North 21.9 mph - N/A   Overcast
7:15 PM 30.2 °F 18.5 °F 23.0 °F 75% 30.09 in 10.0 mi North 17.3 mph 24.2 mph N/A   Overcast
7:35 PM 28.4 °F 15.1 °F 23.0 °F 80% 30.10 in 10.0 mi North 20.7 mph - N/A   Overcast
7:55 PM 28.4 °F 15.8 °F 23.0 °F 80% 30.11 in 10.0 mi North 18.4 mph 21.9 mph N/A   Mostly Cloudy
8:15 PM 28.4 °F 16.2 °F 21.2 °F 74% 30.12 in 10.0 mi North 17.3 mph - N/A   Overcast
8:35 PM 28.4 °F 16.6 °F 21.2 °F 74% 30.14 in 10.0 mi North 16.1 mph 19.6 mph N/A   Overcast
8:55 PM 26.6 °F 15.7 °F 21.2 °F 80% 30.15 in 10.0 mi NNW 12.7 mph - N/A   Overcast
9:15 PM 26.6 °F 15.7 °F 21.2 °F 80% 30.17 in 10.0 mi North 12.7 mph 23.0 mph N/A   Overcast
9:35 PM 24.8 °F 11.9 °F 19.4 °F 80% 30.17 in 10.0 mi North 16.1 mph 23.0 mph N/A   Overcast
9:55 PM 24.8 °F 11.5 °F 19.4 °F 80% 30.17 in 10.0 mi North 17.3 mph 23.0 mph N/A   Overcast
10:15 PM 24.8 °F 12.9 °F 19.4 °F 80% 30.18 in 10.0 mi North 13.8 mph 20.7 mph N/A   Overcast
10:35 PM 24.8 °F 13.4 °F 19.4 °F 80% 30.19 in 10.0 mi NNW 12.7 mph 18.4 mph N/A   Overcast
10:55 PM 24.8 °F 14.0 °F 19.4 °F 80% 30.21 in 10.0 mi NNW 11.5 mph - N/A   Overcast
11:15 PM 24.8 °F 14.0 °F 19.4 °F 80% 30.21 in 10.0 mi North 11.5 mph - N/A   Overcast
11:35 PM 24.8 °F 11.9 °F 19.4 °F 80% 30.21 in 10.0 mi North 16.1 mph - N/A   Overcast
11:55 PM 23.0 °F 10.6 °F 17.6 °F 80% 30.22 in 10.0 mi North 13.8 mph - N/A   Overcast